• In Hungary
  • List of Countries
  • For 7 days
  • Water Temperature
  • Satellite Maps
  • Weather Map
  • News
  • Weather Widgets
  • user-avatar
    Login

    Hourly Weather Puertollano

    Today, 15 November, Thursday

    Time Temperature Precipitation Wind Pressure Humidity
    00:00 +10°C° 0 mm 2 mps 703 mmHg 86%
    01:00 +10°C° 0 mm 2 mps 703 mmHg 87%
    02:00 +10°C° 0 mm 2 mps 703 mmHg 88%
    03:00 +10°C° 0 mm 2 mps 702 mmHg 88%
    04:00 +10°C° 0 mm 2 mps 702 mmHg 89%
    05:00 +9°C° 0 mm 2 mps 702 mmHg 89%
    06:00 +10°C° 0 mm 1 mps 702 mmHg 89%
    07:00 +12°C° 0 mm 2 mps 703 mmHg 84%
    08:00 +13°C° 0 mm 2 mps 703 mmHg 79%
    09:00 +14°C° 0 mm 2 mps 704 mmHg 74%
    10:00 +16°C° 0 mm 2 mps 704 mmHg 67%
    11:00 +17°C° 0 mm 2 mps 704 mmHg 61%
    12:00 +19°C° 0 mm 2 mps 704 mmHg 54%
    13:00 +19°C° 0 mm 2 mps 704 mmHg 53%
    14:00 +19°C° 0 mm 2 mps 704 mmHg 51%
    15:00 +21°C° 0 mm 1 mps 703 mmHg 49%
    16:00 +19°C° 0.1 mm 1 mps 703 mmHg 56%
    17:00 +16°C° 0.1 mm 1 mps 703 mmHg 62%
    18:00 +15°C° 0.1 mm 1 mps 703 mmHg 69%
    19:00 +14°C° 0 mm 1 mps 703 mmHg 71%
    20:00 +14°C° 0 mm 1 mps 704 mmHg 74%
    21:00 +13°C° 0 mm 1 mps 704 mmHg 77%
    22:00 +13°C° 0.1 mm 1 mps 704 mmHg 79%
    23:00 +12°C° 0.1 mm 1 mps 704 mmHg 81%

    Tomorrow, 16 November, Friday

    Time Temperature Precipitation Wind Pressure Humidity
    00:00 +12°C° 0.1 mm 1 mps 704 mmHg 83%
    01:00 +12°C° 0 mm 1 mps 704 mmHg 84%
    02:00 +11°C° 0 mm 1 mps 704 mmHg 86%
    03:00 +11°C° 0 mm 1 mps 703 mmHg 87%
    04:00 +11°C° 0 mm 1 mps 703 mmHg 88%
    05:00 +10°C° 0 mm 1 mps 703 mmHg 89%
    06:00 +10°C° 0 mm 1 mps 703 mmHg 90%
    07:00 +10°C° 0 mm 2 mps 703 mmHg 86%
    08:00 +12°C° 0 mm 2 mps 704 mmHg 81%
    09:00 +14°C° 0 mm 2 mps 704 mmHg 76%
    10:00 +15°C° 0 mm 2 mps 704 mmHg 69%
    11:00 +17°C° 0 mm 2 mps 704 mmHg 63%
    12:00 +18°C° 0 mm 2 mps 704 mmHg 56%
    13:00 +18°C° 0 mm 2 mps 704 mmHg 54%
    14:00 +19°C° 0 mm 2 mps 703 mmHg 52%
    15:00 +19°C° 0 mm 2 mps 703 mmHg 50%
    16:00 +18°C° 0 mm 1 mps 703 mmHg 55%
    17:00 +16°C° 0 mm 1 mps 703 mmHg 61%
    18:00 +14°C° 0 mm 1 mps 703 mmHg 66%
    19:00 +14°C° 0 mm 1 mps 703 mmHg 69%
    20:00 +13°C° 0 mm 1 mps 703 mmHg 71%
    21:00 +12°C° 0 mm 1 mps 703 mmHg 74%
    22:00 +12°C° 0 mm 1 mps 703 mmHg 76%
    23:00 +12°C° 0 mm 1 mps 703 mmHg 77%

    Day after tomorrow, 17 November, Saturday

    Time Temperature Precipitation Wind Pressure Humidity
    00:00 +11°C° 0 mm 1 mps 702 mmHg 79%
    01:00 +11°C° 0 mm 1 mps 702 mmHg 81%
    02:00 +11°C° 0 mm 1 mps 702 mmHg 82%
    03:00 +10°C° 0 mm 1 mps 702 mmHg 84%
    04:00 +10°C° 0 mm 1 mps 702 mmHg 85%
    05:00 +10°C° 0 mm 1 mps 702 mmHg 85%
    06:00 +10°C° 0 mm 1 mps 701 mmHg 86%
    07:00 +11°C° 0 mm 1 mps 702 mmHg 82%
    08:00 +12°C° 0 mm 1 mps 702 mmHg 78%
    09:00 +13°C° 0 mm 2 mps 702 mmHg 73%
    10:00 +14°C° 0 mm 2 mps 702 mmHg 66%
    11:00 +16°C° 0 mm 2 mps 702 mmHg 60%
    12:00 +17°C° 0 mm 2 mps 702 mmHg 53%
    13:00 +18°C° 0 mm 2 mps 701 mmHg 51%
    14:00 +18°C° 0 mm 2 mps 701 mmHg 50%
    15:00 +18°C° 0 mm 2 mps 700 mmHg 48%
    16:00 +17°C° 0 mm 2 mps 700 mmHg 54%
    17:00 +15°C° 0 mm 1 mps 699 mmHg 59%
    18:00 +14°C° 0 mm 1 mps 699 mmHg 64%
    19:00 +14°C° 0 mm 1 mps 699 mmHg 65%
    20:00 +14°C° 0 mm 1 mps 698 mmHg 65%
    21:00 +13°C° 0 mm 2 mps 698 mmHg 66%
    22:00 +13°C° 0 mm 2 mps 698 mmHg 68%
    23:00 +13°C° 0 mm 2 mps 698 mmHg 70%

    18 November, Sunday

    Time Temperature Precipitation Wind Pressure Humidity
    00:00 +13°C° 0 mm 1 mps 697 mmHg 72%
    01:00 +12°C° 0.1 mm 1 mps 697 mmHg 75%
    02:00 +12°C° 0.1 mm 1 mps 696 mmHg 78%
    03:00 +12°C° 0.1 mm 1 mps 696 mmHg 80%
    04:00 +12°C° 0.3 mm 1 mps 696 mmHg 82%
    05:00 +11°C° 0.3 mm 1 mps 695 mmHg 84%
    06:00 +11°C° 0.3 mm 1 mps 695 mmHg 86%
    07:00 +10°C° 0.6 mm 2 mps 695 mmHg 86%
    08:00 +12°C° 0.6 mm 2 mps 696 mmHg 86%
    09:00 +12°C° 0.6 mm 2 mps 696 mmHg 86%
    10:00 +12°C° 0.6 mm 2 mps 696 mmHg 84%
    11:00 +12°C° 0.6 mm 2 mps 696 mmHg 83%
    12:00 +12°C° 0.6 mm 3 mps 695 mmHg 82%
    13:00 +13°C° 0.3 mm 2 mps 695 mmHg 79%
    14:00 +13°C° 0.3 mm 2 mps 695 mmHg 75%
    15:00 +14°C° 0.3 mm 2 mps 695 mmHg 72%
    16:00 +13°C° 0.4 mm 2 mps 695 mmHg 77%
    17:00 +12°C° 0.4 mm 1 mps 695 mmHg 82%
    18:00 +11°C° 0.4 mm 1 mps 694 mmHg 86%
    19:00 +11°C° 0.2 mm 1 mps 694 mmHg 87%
    20:00 +11°C° 0.2 mm 1 mps 695 mmHg 88%
    21:00 +10°C° 0.2 mm 1 mps 695 mmHg 89%
    22:00 +10°C° 0 mm 1 mps 695 mmHg 90%
    23:00 +10°C° 0 mm 1 mps 694 mmHg 90%

    19 November, Monday

    Time Temperature Precipitation Wind Pressure Humidity
    00:00 +10°C° 0 mm 1 mps 694 mmHg 90%
    01:00 +10°C° 0.1 mm 1 mps 694 mmHg 90%
    02:00 +10°C° 0.1 mm 1 mps 694 mmHg 90%
    03:00 +10°C° 0.1 mm 1 mps 693 mmHg 90%
    04:00 +10°C° 0.1 mm 1 mps 693 mmHg 90%
    05:00 +10°C° 0.1 mm 1 mps 693 mmHg 90%
    06:00 +9°C° 0.1 mm 1 mps 693 mmHg 91%
    07:00 +10°C° 0 mm 1 mps 693 mmHg 88%
    08:00 +11°C° 0 mm 1 mps 694 mmHg 85%
    09:00 +11°C° 0 mm 1 mps 694 mmHg 82%
    10:00 +12°C° 0.1 mm 1 mps 694 mmHg 78%
    11:00 +12°C° 0.1 mm 0 mps 694 mmHg 73%
    12:00 +13°C° 0.1 mm 0 mps 694 mmHg 69%
    13:00 +13°C° 0.4 mm 1 mps 694 mmHg 70%
    14:00 +13°C° 0.4 mm 1 mps 693 mmHg 70%
    15:00 +13°C° 0.4 mm 1 mps 693 mmHg 71%
    16:00 +12°C° 0.3 mm 1 mps 693 mmHg 76%
    17:00 +11°C° 0.3 mm 1 mps 693 mmHg 81%
    18:00 +11°C° 0.3 mm 1 mps 694 mmHg 85%
    19:00 +10°C° 0 mm 1 mps 694 mmHg 87%
    20:00 +10°C° 0 mm 1 mps 694 mmHg 89%
    21:00 +10°C° 0 mm 1 mps 695 mmHg 90%
    22:00 +9°C° 0 mm 1 mps 694 mmHg 91%
    23:00 +9°C° 0 mm 1 mps 694 mmHg 93%

    20 November, Tuesday

    Time Temperature Precipitation Wind Pressure Humidity
    00:00 +9°C° 0 mm 1 mps 694 mmHg 94%
    01:00 +9°C° 0.1 mm 1 mps 694 mmHg 94%
    02:00 +9°C° 0.1 mm 1 mps 694 mmHg 95%
    03:00 +8°C° 0.1 mm 1 mps 694 mmHg 95%
    04:00 +8°C° 0.1 mm 1 mps 694 mmHg 95%
    05:00 +8°C° 0.1 mm 1 mps 694 mmHg 95%
    06:00 +8°C° 0.1 mm 1 mps 694 mmHg 95%
    07:00 +9°C° 0 mm 1 mps 695 mmHg 92%
    08:00 +8°C° 0 mm 2 mps 695 mmHg 89%
    09:00 +9°C° 0 mm 2 mps 696 mmHg 87%
    10:00 +10°C° 0 mm 3 mps 696 mmHg 83%
    11:00 +10°C° 0 mm 3 mps 696 mmHg 79%
    12:00 +11°C° 0 mm 4 mps 696 mmHg 76%
    13:00 +11°C° 0.1 mm 4 mps 696 mmHg 73%
    14:00 +12°C° 0.1 mm 4 mps 696 mmHg 71%
    15:00 +12°C° 0.1 mm 4 mps 696 mmHg 69%
    16:00 +11°C° 0.1 mm 4 mps 696 mmHg 74%
    17:00 +10°C° 0.1 mm 3 mps 696 mmHg 80%
    18:00 +9°C° 0.1 mm 2 mps 696 mmHg 86%
    19:00 +9°C° 0.2 mm 3 mps 696 mmHg 88%
    20:00 +8°C° 0.2 mm 3 mps 697 mmHg 90%
    21:00 +8°C° 0.2 mm 3 mps 697 mmHg 92%
    22:00 +7°C° 0.1 mm 4 mps 697 mmHg 91%
    23:00 +7°C° 0.1 mm 4 mps 697 mmHg 90%
    Show more